Wind_Speed
73 75 76 77 79 79 80 80 79 79 78 78 77 76 74 73 72 71 70 70 71 71 71 72 73 73 75 76 77 77 78 78 78 77 74 74 75 76 77 77 76 76 76 76 76 76 76 76 75 74 74 73 72 70 68 66 65 64 65 65 66 66 67 67 67 66 67 67 66 66 67 68 68 68 69 69 69 70 69 69 69 68 67 67 66
75 76 77 79 80 81 81 81 80 79 78 77 76 75 75 74 74 73 72 71 72 73 73 74 75 76 76 77 78 79 79 79 78 78 77 75 76 77 78 78 78 78 78 77 77 77 77 76 75 75 75 74 73 72 71 69 67 66 66 66 66 66 67 67 67 67 68 67 66 66 67 68 68 69 70 70 71 71 71 70 70 69 69 69 68
78 80 81 82 81 81 81 82 82 82 80 79 78 77 78 77 77 77 75 74 74 74 75 76 78 79 79 80 81 81 81 80 79 78 77 77 76 77 78 80 80 79 79 79 78 78 78 77 76 75 75 74 74 73 73 71 70 69 67 67 67 67 67 68 68 68 68 68 68 68 68 68 69 70 71 72 72 72 71 71 71 71 71 71 70
84 86 87 87 87 86 85 84 84 84 83 82 80 79 78 79 80 80 79 79 79 79 79 79 79 80 81 82 83 83 84 83 83 81 80 79 78 78 78 79 79 80 81 81 81 80 79 78 77 76 75 74 74 74 74 73 72 71 69 68 68 67 68 69 69 70 70 70 70 70 70 70 70 71 72 73 73 73 73 72 72 72 72 72 72
88 88 88 87 87 87 86 86 86 86 86 85 83 82 82 82 83 82 82 81 81 82 83 83 84 83 83 84 84 85 86 86 86 85 85 84 84 83 82 81 80 80 80 81 82 82 81 80 79 78 77 75 74 74 75 75 74 73 72 70 69 68 69 70 70 71 72 72 72 72 73 72 72 72 73 73 74 75 74 74 73 73 73 73 72
90 88 86 85 84 85 86 87 88 88 89 89 89 89 90 90 90 89 88 86 85 84 84 85 86 86 87 87 87 87 88 88 88 88 89 90 89 88 88 88 86 85 84 82 82 82 83 82 81 80 79 77 76 76 76 76 76 76 75 73 72 71 70 71 72 73 73 73 74 75 75 74 74 73 73 74 75 75 75 75 74 74 74 73 73
93 91 90 90 90 92 93 95 95 95 95 95 96 97 98 98 98 97 95 94 92 91 89 88 87 87 88 90 91 92 92 91 90 90 91 92 91 90 89 89 89 89 88 86 84 82 82 82 82 81 80 79 79 79 79 78 78 78 77 77 77 75 73 73 73 74 75 75 76 76 76 75 75 74 73 74 75 74 74 74 74 74 74 73 73
96 96 97 98 99 102 104 105 104 103 102 103 103 103 103 104 104 103 102 100 97 96 94 93 92 90 90 90 91 93 94 94 94 93 93 93 93 92 91 91 90 89 89 88 87 85 83 82 81 80 80 79 79 79 80 81 81 81 81 81 81 79 77 76 76 76 77 77 78 77 77 77 76 75 75 74 73 72 71 72 72 72 72 72 72
103 103 104 106 109 111 111 110 109 107 106 106 106 105 105 105 105 105 104 103 101 98 96 95 94 93 92 92 92 93 94 95 95 95 94 94 94 93 93 93 92 92 91 90 90 89 88 86 84 81 79 78 78 78 79 80 82 83 84 84 84 83 81 80 80 79 79 79 79 79 79 78 77 77 76 75 72 70 70 71 71 70 70 69 69
107 108 109 112 113 113 112 111 109 108 106 105 104 104 103 102 101 100 100 101 101 100 99 97 96 94 93 93 93 93 94 95 96 97 96 96 95 94 93 93 93 94 94 94 93 93 93 92 89 86 82 80 79 79 79 80 81 83 84 85 85 84 84 83 82 81 81 81 80 80 79 78 76 75 75 74 73 72 72 72 72 71 71 70 68
105 107 107 108 109 109 109 108 108 106 105 104 103 102 101 101 99 99 98 98 99 100 100 100 99 98 96 95 94 93 94 95 97 99 100 100 100 99 97 95 93 94 95 95 96 96 95 95 94 92 89 86 83 82 81 82 83 84 86 87 87 86 86 85 84 84 83 82 81 82 81 77 74 74 73 73 74 75 74 75 75 76 75 72 70
101 102 103 104 104 105 105 105 105 105 104 104 103 103 102 102 101 101 101 101 101 102 102 102 102 101 101 100 98 97 95 95 96 98 99 101 102 104 103 101 98 96 95 95 97 97 97 96 96 95 94 92 90 87 85 84 85 87 88 88 89 89 88 88 87 87 86 85 83 83 82 79 77 76 75 74 75 76 76 77 78 78 77 75 72
99 99 100 101 102 103 103 104 104 104 105 105 106 106 106 106 105 106 106 106 106 106 105 105 106 106 106 105 104 103 101 99 99 99 99 100 101 103 105 105 104 101 99 97 97 97 98 98 97 96 95 94 94 92 89 87 87 90 91 91 91 91 91 91 90 90 90 89 87 85 83 82 81 80 78 77 77 77 78 78 79 79 79 77 75
94 95 96 97 98 99 100 101 102 103 103 104 105 106 107 107 108 108 109 109 109 108 108 108 108 109 110 110 110 109 107 106 105 105 104 104 104 104 105 105 105 105 103 102 100 99 99 99 99 98 97 96 95 95 93 91 90 91 92 93 93 93 93 94 93 93 93 92 91 87 85 85 86 84 83 82 80 79 78 78 79 80 80 79 77
89 90 91 91 92 93 94 96 97 98 99 100 101 102 103 104 105 106 107 108 109 109 109 109 109 109 109 111 112 113 112 112 112 112 111 110 110 110 109 109 108 108 107 106 105 104 103 102 101 100 99 97 96 96 96 96 95 94 93 93 93 94 95 95 95 94 94 94 93 90 89 89 89 88 87 86 84 82 81 81 80 80 80 80 78
83 84 85 85 86 87 89 90 91 92 93 94 95 96 97 98 99 100 101 102 103 104 106 106 107 107 107 108 109 110 111 112 114 115 115 115 115 115 114 114 114 113 112 111 110 109 108 107 105 103 102 100 99 98 98 99 99 99 97 95 95 95 95 95 95 95 95 94 94 92 91 91 91 90 89 88 87 86 85 85 83 81 80 79 78
77 78 79 79 80 81 82 84 85 86 87 88 89 90 91 93 93 94 95 96 96 97 98 100 101 103 103 104 104 105 106 107 108 111 113 115 116 117 117 117 117 118 117 116 115 114 113 112 110 109 106 104 103 102 101 101 101 101 101 100 100 98 97 95 95 95 95 95 94 92 92 92 92 92 92 91 90 90 90 89 86 84 82 81 80
75 75 76 76 77 78 79 80 81 82 83 84 85 86 87 88 90 91 92 93 93 93 94 95 96 97 98 98 99 100 101 100 100 102 104 107 110 113 115 116 116 117 117 117 116 115 115 114 114 113 111 109 107 106 106 106 105 103 103 103 103 102 100 99 99 99 98 96 95 94 93 93 93 93 93 93 93 93 92 90 89 89 88 86 84
74 75 76 77 77 78 79 80 81 82 82 83 84 85 85 86 87 88 90 91 91 91 91 92 93 93 93 94 95 96 97 96 95 96 97 98 100 104 107 110 112 112 112 112 113 113 114 114 114 114 114 113 111 110 110 110 109 107 105 105 105 104 102 102 104 105 103 101 99 97 96 95 94 94 94 94 93 93 92 91 90 90 88 86 85
75 76 77 78 79 79 80 81 81 82 83 83 84 84 85 86 87 88 89 90 90 90 90 91 92 92 91 92 93 94 94 94 93 92 93 94 95 96 99 102 105 106 106 106 107 108 109 111 111 112 113 113 113 113 113 113 113 112 110 108 107 104 103 105 107 107 106 106 104 102 100 99 98 97 96 94 93 92 90 89 88 86 84 82 82
76 77 78 79 80 80 81 82 83 83 84 85 85 85 85 87 88 88 89 89 90 90 90 91 92 92 91 92 92 93 93 94 93 93 93 93 93 94 96 98 99 100 101 101 101 102 103 104 106 106 107 109 111 112 113 113 114 115 114 112 109 106 106 107 108 108 108 108 107 106 105 103 103 102 101 99 97 94 90 87 85 84 83 81 79
77 78 78 79 80 81 82 83 84 84 84 85 85 84 84 85 86 87 88 88 89 89 89 90 91 91 91 91 91 91 92 93 94 94 94 94 94 95 96 97 97 97 98 99 98 97 97 98 99 100 100 102 104 106 108 110 111 113 113 113 111 109 109 109 109 108 109 109 109 109 108 107 105 104 104 103 101 98 95 90 86 84 84 84 83
77 78 79 80 81 81 82 82 82 83 83 83 82 81 81 81 81 81 82 83 83 84 84 85 86 87 87 87 88 89 89 90 92 93 93 94 95 95 96 97 97 98 99 99 97 96 95 94 94 94 95 96 97 99 102 104 107 108 110 110 110 109 110 110 110 109 109 109 110 110 110 109 108 106 105 103 102 100 98 95 91 88 86 85 84
77 77 78 79 79 80 80 80 80 79 78 77 76 74 73 72 72 72 73 73 74 74 74 75 76 76 77 77 77 79 81 83 85 87 89 91 92 94 95 96 96 98 99 100 98 97 95 93 92 91 91 92 93 94 96 98 100 102 104 106 107 108 108 109 109 109 109 109 110 110 110 109 109 108 106 104 102 100 98 96 95 93 90 85 81
75 76 76 77 78 77 76 74 72 70 68 67 67 66 65 65 65 66 67 67 68 68 68 68 69 68 67 66 66 66 68 70 73 75 79 83 86 89 91 93 94 96 97 98 98 97 96 94 93 91 91 91 92 92 93 94 95 96 97 100 102 104 106 106 107 107 108 108 108 108 108 108 108 108 107 105 103 100 97 95 94 93 93 91 87
74 74 75 74 73 71 67 64 62 61 60 60 60 59 59 60 61 62 63 64 65 66 66 66 66 66 65 64 63 62 62 63 64 66 68 72 75 79 83 86 89 91 93 95 96 96 95 94 94 93 92 91 91 92 92 92 91 91 92 94 96 98 100 102 103 104 104 104 104 104 105 105 106 107 107 106 104 102 99 96 93 90 90 90 90
71 71 70 68 64 61 58 55 54 53 52 52 53 54 55 57 58 59 60 61 62 63 64 64 64 64 63 62 62 61 61 61 62 62 63 64 66 69 73 77 81 85 88 89 91 92 93 93 93 93 93 92 92 92 92 91 90 89 89 90 91 93 95 96 98 100 101 101 100 99 100 101 103 104 105 105 104 103 101 98 94 90 88 87 86
67 65 63 60 56 53 50 48 47 46 47 48 50 51 52 53 53 54 56 57 58 59 59 60 61 62 62 61 61 61 61 61 62 62 62 62 62 62 64 67 71 75 79 82 84 86 88 89 90 91 91 92 92 91 91 90 89 88 88 88 89 89 90 92 94 96 97 98 97 95 94 95 96 97 99 100 100 100 99 96 93 90 87 85 84
60 59 57 53 49 46 45 44 44 45 46 46 47 48 49 50 51 52 54 55 56 56 55 55 56 57 57 58 59 59 59 59 60 61 62 61 61 60 60 62 63 65 68 71 76 80 82 84 85 86 87 88 89 90 89 88 87 86 86 87 88 88 88 89 91 92 93 94 94 93 91 89 89 90 91 92 94 95 95 93 91 88 86 85 83
55 54 52 48 45 43 43 43 43 43 43 43 44 45 48 50 53 55 56 57 57 56 56 55 55 55 54 53 54 54 54 54 57 59 60 60 61 60 60 60 60 60 61 63 67 71 74 76 78 80 81 82 83 85 85 85 85 85 84 85 86 86 87 87 88 89 90 91 92 92 90 88 86 84 84 84 85 87 89 89 89 87 85 84 83
49 49 47 45 42 42 41 41 41 41 41 42 43 44 47 52 56 57 55 53 51 51 51 51 52 53 53 53 53 52 51 51 52 53 54 56 57 58 59 59 58 58 59 61 63 63 64 67 70 72 74 76 77 78 79 80 81 82 82 83 84 84 85 86 86 88 89 89 89 90 89 88 85 82 80 80 80 81 83 85 87 86 84 83 83
43 43 43 42 40 39 38 38 38 39 40 41 43 45 48 51 50 46 42 40 39 39 41 42 43 44 45 46 47 49 50 50 51 51 51 51 52 52 53 55 56 56 57 60 60 57 56 58 60 62 65 68 70 71 72 75 77 78 79 81 81 82 82 83 84 86 88 88 88 87 87 87 85 82 79 78 77 77 78 80 82 84 84 84 83
37 38 39 38 36 35 36 36 37 38 39 41 42 45 48 46 39 32 30 31 34 37 40 41 41 41 41 41 40 40 42 45 47 49 50 50 50 50 50 50 52 53 55 56 56 53 52 52 52 53 55 58 60 63 67 70 72 74 75 77 78 78 79 80 82 84 86 86 86 85 85 85 85 83 81 79 77 75 75 75 77 80 82 83 83
33 35 35 35 33 34 34 35 36 37 39 40 41 43 44 41 34 29 27 28 31 37 42 43 43 42 41 41 40 40 39 39 40 43 45 46 48 49 50 50 50 50 51 52 51 50 49 49 47 47 48 49 51 55 60 65 68 70 71 72 73 74 76 77 79 80 82 83 83 82 82 82 83 83 82 81 79 77 74 73 73 74 76 77 79
30 32 32 32 33 34 34 35 36 37 38 39 40 41 41 38 34 31 30 30 31 36 40 42 42 41 41 41 40 41 41 39 37 37 38 40 42 44 45 46 46 47 47 47 47 46 45 45 44 43 43 44 45 47 52 58 63 66 68 68 69 70 72 74 75 76 78 80 81 80 79 80 81 81 81 81 81 79 76 73 71 70 71 73 74
28 29 30 31 32 33 34 35 36 37 38 39 39 39 39 38 35 33 32 33 34 36 39 41 40 39 40 40 40 40 41 40 38 36 35 35 36 37 38 39 39 39 40 41 41 42 42 42 42 41 41 42 42 43 46 51 57 62 65 65 65 66 68 69 70 72 74 76 78 78 77 78 79 79 79 79 78 77 76 75 72 68 67 68 70
27 28 28 29 30 32 33 34 35 36 36 37 38 39 39 39 37 35 34 35 36 37 39 40 40 38 37 38 39 39 40 39 37 36 34 33 33 34 34 34 34 33 34 34 36 38 39 40 40 40 41 41 41 41 43 47 52 57 61 62 63 63 64 65 66 68 71 73 75 76 76 75 76 76 77 76 76 75 74 74 72 68 65 64 65
26 27 28 29 30 31 32 33 35 36 36 37 37 38 39 40 39 39 38 38 38 38 39 40 40 38 37 37 38 39 39 39 37 34 32 31 31 31 31 31 32 32 32 33 34 35 36 38 38 39 39 39 38 39 41 44 49 53 57 59 60 61 62 62 63 64 67 70 72 73 73 72 72 73 74 74 73 72 71 71 70 68 65 64 63
25 26 27 29 30 32 33 34 35 36 37 37 38 38 39 40 40 40 40 40 41 40 40 40 40 39 37 36 36 37 38 38 37 34 30 28 28 27 26 27 28 29 31 32 33 34 35 36 36 36 35 35 35 37 39 42 45 49 53 56 58 59 59 58 59 61 64 66 68 69 70 69 69 70 71 71 69 67 67 67 67 66 65 64 65
25 26 27 28 30 32 33 34 35 36 36 37 37 38 38 39 40 40 39 38 39 40 39 39 39 38 36 35 34 34 35 36 36 34 30 26 24 24 22 21 21 21 23 25 27 29 30 31 32 32 32 33 34 37 38 40 42 45 49 52 55 56 56 55 56 58 61 63 65 67 67 67 66 67 67 66 64 63 63 63 63 64 64 65 66
25 27 28 29 30 32 33 34 35 36 36 37 38 38 38 39 39 39 39 38 37 36 37 37 36 35 34 33 32 31 31 33 34 33 30 25 22 21 20 19 18 18 19 20 22 25 26 27 28 29 30 31 33 35 36 37 39 42 45 47 50 51 51 51 53 56 58 60 62 64 64 64 64 64 63 62 60 60 60 60 60 61 63 64 66
26 28 29 30 31 33 34 35 36 36 37 37 38 38 39 39 39 39 39 38 37 35 35 35 34 32 32 31 30 29 30 30 31 31 30 26 22 19 18 18 17 17 18 19 20 21 21 22 23 25 26 27 29 30 30 32 35 37 39 42 44 46 47 48 50 52 54 56 58 60 61 61 61 61 60 59 58 58 59 59 59 59 60 62 63
28 29 30 31 32 34 35 37 38 38 39 39 39 39 39 40 40 40 39 38 38 36 35 34 33 32 31 30 29 28 29 29 28 29 29 27 23 20 17 16 16 16 16 16 17 16 16 16 16 17 19 20 21 22 24 26 29 31 33 36 39 41 43 45 46 47 49 51 54 56 57 58 59 60 60 58 58 57 57 57 56 56 56 57 59
28 30 31 32 33 35 36 37 39 40 40 41 41 40 40 40 41 41 40 39 37 36 35 34 32 31 31 30 29 28 28 27 26 26 26 26 25 22 18 16 15 14 14 13 13 13 12 12 12 11 11 12 13 15 17 19 22 25 28 31 33 35 37 39 41 42 44 46 48 51 52 54 56 58 59 58 56 54 53 53 52 51 51 52 54
29 30 31 32 34 35 36 38 39 40 41 42 42 43 43 42 42 42 42 40 38 36 35 33 31 30 30 30 29 28 27 26 25 25 25 24 24 22 20 18 16 14 12 11 10 9 8 8 8 8 8 8 9 11 13 15 17 20 22 25 27 29 32 33 35 37 39 42 44 45 47 50 53 55 56 55 52 50 50 49 49 49 49 49 50
29 30 31 32 34 35 36 38 39 40 41 42 43 44 45 45 44 44 43 42 39 36 34 33 31 29 28 28 28 28 26 25 24 25 25 23 22 20 20 19 19 17 14 11 9 7 6 5 5 5 6 7 8 10 11 13 15 17 18 20 22 24 26 28 30 32 34 37 39 41 42 45 48 51 52 51 49 48 47 47 47 47 47 47 48
30 31 32 33 34 35 36 38 39 41 42 43 44 45 46 46 46 45 44 42 40 37 34 32 31 29 27 26 27 27 26 25 24 24 24 23 21 19 18 17 17 16 15 13 11 8 6 4 3 4 5 6 7 8 9 10 12 13 15 17 18 20 22 23 25 27 29 32 34 37 39 41 44 46 47 47 46 45 45 45 45 45 45 45 46
30 31 32 33 34 35 36 38 39 41 42 43 44 46 46 47 46 45 43 41 39 37 34 32 30 29 27 25 25 25 25 24 24 23 22 21 20 17 14 12 13 14 14 13 12 11 10 7 4 2 3 4 5 6 7 9 10 11 13 14 15 17 19 21 23 25 27 29 31 34 37 39 41 43 43 44 44 43 43 42 43 43 43 43 44
30 31 32 33 34 35 36 37 39 40 42 43 44 45 45 45 45 43 42 39 37 35 34 32 30 28 26 24 23 22 22 22 23 21 19 18 17 14 11 10 11 13 13 12 11 10 9 8 7 5 2 1 1 2 3 5 7 9 10 11 13 15 17 19 22 24 27 30 32 34 36 37 39 40 40 41 41 42 42 42 41 41 41 42 42
29 30 31 33 34 35 36 37 39 40 42 43 44 44 44 43 42 40 38 36 34 33 33 31 30 28 26 24 22 21 20 20 20 19 17 15 13 12 10 10 10 11 12 11 10 8 7 6 5 5 3 2 1 1 2 3 4 6 8 9 11 13 15 17 18 20 23 25 28 30 32 33 35 37 38 38 39 40 40 40 40 40 40 41 41
29 30 32 33 34 35 36 38 39 40 42 43 43 43 42 40 39 37 35 33 31 30 30 30 29 28 26 25 23 21 19 17 17 16 14 13 12 11 11 11 11 11 12 12 11 10 8 6 4 3 2 1 1 2 2 3 4 5 7 8 10 11 13 15 17 19 21 23 25 26 28 30 32 33 34 35 36 37 37 38 39 39 40 41 41
Wind_Direction
270 271 271 271 272 272 273 273 272 272 271 271 272 272 272 273 272 271 270 269 267 266 264 263 262 261 261 262 262 262 263 263 263 263 263 261 260 258 258 257 257 257 257 257 256 257 257 258 258 258 257 258 257 257 257 256 256 256 256 257 258 259 259 259 260 260 261 262 264 265 265 266 266 266 266 266 265 265 265 264 264 263 263 263 262
275 275 275 275 274 274 274 273 273 272 271 270 270 270 270 271 271 270 269 268 266 265 264 263 262 262 261 261 262 263 263 264 265 265 264 263 261 259 258 256 256 256 256 256 255 255 255 256 256 257 257 257 256 256 256 256 255 255 256 256 257 258 259 259 259 259 259 260 262 263 264 264 264 265 265 265 265 264 264 264 264 264 264 263 263
277 277 277 277 276 275 274 273 272 272 271 270 270 270 270 270 270 269 268 266 264 263 262 262 262 262 261 261 261 261 261 262 263 264 263 262 261 259 258 257 256 255 254 255 255 255 254 254 254 255 255 255 255 255 255 255 255 255 256 257 257 258 258 259 259 259 259 259 260 261 262 263 263 264 264 264 264 265 265 264 264 264 264 264 263
276 277 277 276 276 275 274 273 272 271 270 270 270 271 273 273 272 271 268 266 264 262 261 260 260 260 261 261 261 261 261 261 261 261 261 261 260 259 258 257 256 255 254 254 254 255 254 253 253 253 253 253 254 254 254 255 255 255 256 257 258 258 258 259 259 259 259 259 259 260 260 261 262 262 263 264 265 265 265 265 265 265 265 265 265
275 275 274 273 273 273 273 273 272 271 270 270 270 271 273 275 275 273 271 269 266 264 262 260 260 260 260 260 261 261 261 261 260 261 261 260 260 259 259 259 258 257 256 255 255 254 254 254 253 253 253 253 253 254 254 255 255 256 256 256 257 258 258 258 259 259 259 260 259 259 259 260 261 261 262 263 265 265 266 266 266 266 266 266 266
274 273 272 271 271 272 273 273 272 272 271 271 271 272 274 275 276 275 274 271 269 267 265 263 261 260 260 260 261 261 261 260 260 259 259 259 259 258 258 258 258 258 258 258 257 256 255 254 253 253 253 253 253 253 254 255 255 256 256 256 257 257 257 257 258 259 259 259 259 259 259 260 261 262 263 263 265 266 267 267 268 269 269 269 268
274 273 272 272 273 274 275 276 275 274 273 273 273 274 275 276 278 278 276 274 272 270 268 267 265 263 261 260 259 260 261 262 261 260 259 259 258 257 256 255 256 256 257 257 257 257 257 255 254 254 254 254 254 254 255 255 256 257 257 257 257 257 256 256 256 257 258 259 259 259 260 260 261 262 263 264 265 266 268 269 270 270 270 269 268
273 273 273 274 275 276 277 278 278 277 276 276 276 276 276 277 277 277 277 276 275 273 271 269 268 266 264 262 260 259 260 261 262 262 261 261 260 259 257 255 254 254 254 255 255 256 257 256 256 256 256 256 256 256 256 257 258 258 259 259 259 257 256 255 255 255 256 257 258 259 259 260 260 261 262 264 265 268 270 270 269 269 268 267 266
274 274 274 275 276 277 278 278 278 278 277 277 277 276 276 276 276 275 275 275 275 274 273 271 270 268 267 265 262 260 260 260 261 262 263 262 262 261 261 260 258 257 256 256 256 256 257 257 256 256 257 257 257 256 257 257 257 256 257 257 257 256 256 255 255 255 255 256 257 258 259 260 260 261 262 264 266 268 268 267 266 266 266 266 266
274 274 275 276 277 277 278 278 278 278 277 277 276 276 275 275 274 273 273 273 273 273 273 273 272 270 268 266 264 262 261 260 260 261 262 263 263 262 262 262 261 261 260 259 259 259 259 259 258 257 256 257 258 258 258 257 256 255 253 253 253 253 253 254 254 255 256 256 257 258 260 260 261 262 263 264 264 265 264 265 265 265 265 265 265
275 276 276 277 277 277 278 278 278 277 277 277 276 275 275 274 273 272 271 271 271 271 272 272 272 271 270 268 267 265 263 261 260 259 260 260 261 262 262 262 261 262 262 262 262 262 262 261 260 259 257 256 256 257 258 258 258 256 253 251 251 251 251 252 252 254 255 257 258 259 260 261 262 262 262 262 262 263 263 264 265 265 266 266 266
277 277 277 277 277 277 277 277 277 277 277 277 276 276 275 274 273 273 272 271 270 270 270 270 270 270 270 269 268 267 265 264 263 261 260 259 259 259 259 260 260 260 261 261 261 262 262 262 262 261 259 258 256 255 255 256 257 257 255 253 251 251 251 251 251 252 254 256 257 259 261 262 262 262 261 261 262 262 263 263 264 266 267 267 267
277 277 277 277 277 277 277 277 277 277 277 277 277 276 276 275 275 275 274 274 273 272 271 269 268 268 268 268 268 268 267 267 266 264 263 261 260 258 258 257 257 258 258 259 259 260 260 261 261 261 260 259 257 255 254 253 254 255 255 253 252 251 251 251 251 251 252 254 255 258 260 262 262 262 261 260 260 261 262 264 265 266 267 268 268
278 278 278 278 278 278 278 278 278 278 278 278 278 278 277 277 277 276 276 275 274 274 272 271 270 268 268 267 267 266 267 267 267 267 266 264 263 261 260 258 258 257 258 258 258 258 258 258 258 258 258 258 257 256 254 252 251 252 252 253 252 252 252 252 252 252 252 253 254 256 258 260 260 261 260 260 260 261 262 263 265 266 267 267 267
278 278 278 278 278 278 278 278 278 278 278 278 278 278 278 278 278 278 277 276 275 274 273 272 271 270 269 268 268 266 266 266 266 267 267 267 266 265 264 262 260 260 259 259 258 258 257 256 255 255 255 256 256 255 254 252 251 250 250 251 251 251 251 252 252 252 253 253 254 255 256 257 258 259 259 260 260 261 262 262 263 264 265 266 266
280 280 280 279 279 279 279 279 278 278 278 278 278 278 277 277 277 277 277 276 276 275 275 273 272 271 270 269 269 268 267 266 266 265 265 266 266 267 266 265 264 263 262 261 261 259 258 257 256 254 253 253 253 254 254 254 252 251 250 249 249 249 250 251 251 251 251 252 253 254 255 256 257 258 258 259 260 261 262 263 264 264 266 266 266
284 283 283 283 282 282 281 281 280 280 279 279 278 278 278 277 277 276 276 276 275 275 275 275 274 273 272 271 270 269 268 267 266 266 265 265 265 265 266 266 265 265 264 263 262 261 260 258 257 256 254 253 252 252 253 253 253 253 252 250 249 249 249 249 250 251 250 250 251 252 253 254 255 256 257 257 258 259 260 263 264 265 265 266 266
287 286 286 285 285 284 284 283 282 282 281 280 280 279 279 278 278 277 277 276 275 275 275 275 274 274 274 273 272 271 270 268 267 267 266 266 266 265 265 264 264 264 264 263 262 261 260 259 259 257 256 254 253 252 252 252 252 252 252 252 251 250 250 250 250 250 251 251 251 251 251 251 252 252 253 254 254 255 257 259 262 264 265 265 265
287 287 287 286 286 285 285 284 284 283 283 282 281 281 280 279 279 278 278 277 276 276 275 274 274 274 273 273 273 272 271 270 269 268 267 267 266 266 266 265 264 263 263 262 262 261 260 259 259 258 257 256 255 254 253 253 253 252 251 252 252 252 251 251 252 251 251 251 251 252 252 252 252 253 253 254 254 255 256 258 260 262 264 265 264
288 288 288 287 287 287 287 286 286 285 285 284 283 282 282 281 280 279 279 278 277 276 275 275 274 273 272 272 271 271 271 271 270 269 268 267 266 266 266 266 265 264 263 262 261 260 260 259 258 258 258 257 256 256 255 254 253 253 252 251 251 251 251 252 252 253 253 253 252 252 252 252 253 254 254 255 256 257 258 259 260 262 263 264 263
289 289 289 289 288 288 288 287 287 286 286 285 284 284 283 283 282 281 280 279 278 277 276 275 274 273 272 271 270 270 270 270 269 268 267 267 266 265 265 265 265 265 264 263 262 260 259 259 258 258 257 257 256 256 255 254 254 253 253 252 252 251 251 251 252 252 253 253 253 253 253 253 253 253 253 254 256 257 258 259 261 261 262 262 263
290 290 289 289 289 288 288 288 288 287 287 286 286 285 285 284 284 283 282 280 279 278 277 276 275 273 272 271 270 270 269 269 268 268 267 266 266 265 265 265 264 264 264 263 262 261 260 259 258 258 257 257 256 255 255 254 254 254 253 253 252 252 252 251 251 252 252 252 253 253 253 253 254 254 254 254 255 256 256 257 258 259 259 259 261
290 290 290 290 290 290 290 290 290 290 290 289 289 288 287 286 285 284 284 283 281 280 279 278 277 276 274 273 272 271 269 268 267 267 266 265 265 264 264 264 263 263 263 262 261 261 260 259 258 258 257 257 256 256 255 254 254 254 254 253 253 252 252 251 251 251 251 252 252 252 253 253 254 255 255 255 255 256 255 255 255 256 257 258 258
292 292 292 292 292 292 292 292 293 293 293 292 291 290 289 288 287 286 286 285 284 284 283 282 281 280 278 277 275 273 271 270 268 267 266 265 264 263 262 262 262 262 262 262 261 260 259 259 258 257 257 256 256 256 255 255 254 254 253 253 253 252 251 251 251 251 251 251 251 251 252 253 253 254 255 255 255 255 255 254 254 255 256 257 255
294 294 294 294 294 294 295 296 296 295 294 293 293 292 292 291 290 290 289 289 288 288 287 286 284 283 282 281 279 277 275 273 271 269 267 265 264 262 261 261 260 260 260 260 260 260 259 259 258 256 255 255 255 255 255 254 254 254 253 252 252 251 251 251 250 250 250 250 251 251 251 251 252 252 253 254 254 254 254 254 254 255 255 256 256
296 296 297 297 297 298 298 298 297 296 295 295 295 294 294 294 293 293 293 292 291 290 289 288 287 285 284 283 282 281 279 277 274 272 269 267 265 264 262 261 260 259 259 259 259 259 259 258 258 257 255 254 254 254 254 253 253 252 252 252 252 251 251 251 250 249 249 249 250 250 250 250 251 251 251 252 253 254 254 255 255 255 256 256 256
299 299 300 300 300 300 299 298 297 296 296 296 296 297 297 298 298 297 296 295 293 292 291 290 289 287 285 284 282 282 281 280 277 274 271 269 268 267 265 263 262 261 260 259 258 258 258 257 256 256 255 254 253 253 253 252 252 251 251 251 251 251 251 251 250 249 248 248 248 249 249 250 250 250 251 251 252 253 254 254 255 256 256 255 254
302 302 302 302 302 301 300 299 299 299 299 300 301 302 303 303 303 302 301 299 298 296 294 292 290 289 287 285 284 282 282 281 279 275 272 270 269 268 268 266 265 264 262 261 260 258 257 256 255 255 255 254 254 253 253 252 252 251 250 250 250 250 250 250 250 249 248 247 247 247 248 249 250 250 250 251 252 252 253 254 254 254 254 253 252
304 304 304 305 304 303 302 302 303 303 304 305 306 307 307 306 306 306 304 303 301 299 297 295 293 291 289 288 286 284 282 281 279 277 274 271 269 268 267 267 267 267 266 264 262 260 258 257 255 255 254 254 253 253 253 252 252 251 250 250 249 248 248 249 249 249 248 247 247 246 246 246 248 249 249 250 250 251 252 252 253 252 252 250 249
307 307 307 307 306 304 304 305 306 307 308 308 309 309 309 309 308 307 306 304 302 300 298 296 294 293 291 290 288 287 284 282 279 278 275 273 271 269 268 267 266 266 266 265 264 262 261 259 257 256 255 254 253 253 252 252 252 251 250 250 249 248 247 247 247 248 247 246 246 245 244 244 245 246 247 248 249 250 250 250 251 250 250 248 247
309 309 309 308 306 305 306 307 309 310 311 311 311 311 311 310 310 309 308 308 307 307 306 304 302 299 296 293 290 289 287 284 282 279 277 274 272 270 269 267 266 265 264 264 264 264 264 262 260 258 256 255 254 253 252 252 251 250 249 249 248 247 246 245 245 245 246 245 245 244 244 243 243 243 245 246 246 247 248 248 248 248 247 246 246
313 314 312 310 308 306 307 309 312 314 315 315 315 315 314 314 313 314 317 319 321 321 320 319 318 315 310 304 298 292 288 285 282 280 278 276 274 271 269 267 266 265 264 263 263 265 266 266 264 261 258 256 255 253 253 252 251 249 248 247 247 246 245 244 243 243 243 244 243 243 243 242 241 241 242 243 244 244 245 246 246 246 245 244 244
322 322 318 313 310 308 309 312 315 316 318 318 318 319 320 320 321 325 328 330 330 329 328 327 327 327 325 321 315 307 297 288 283 279 277 276 274 272 269 267 266 265 264 263 263 264 265 266 267 265 262 258 255 252 251 251 250 249 248 247 246 246 245 244 242 242 242 242 243 242 242 242 241 240 240 241 242 243 243 244 245 246 245 245 244
329 329 325 320 317 315 314 315 317 318 319 319 319 321 324 327 329 328 329 331 332 332 330 327 326 327 328 327 324 321 313 302 291 283 278 275 273 272 269 268 266 265 264 263 262 262 262 264 266 267 265 262 256 251 249 248 249 249 248 246 245 245 244 243 242 241 241 241 242 241 241 240 241 240 239 239 241 242 243 243 244 245 246 246 246
330 331 332 333 331 326 322 319 319 319 319 319 319 322 326 330 329 325 325 329 332 332 330 327 325 325 328 330 327 324 320 314 304 294 285 278 274 271 270 268 265 264 263 262 260 259 259 261 264 265 265 263 258 252 248 246 246 247 247 246 244 244 243 242 241 241 240 240 240 240 239 239 238 238 237 237 239 240 242 243 243 244 245 246 247
328 332 336 341 341 338 334 330 326 323 321 320 320 321 325 328 327 324 322 325 329 330 330 328 325 324 328 333 332 328 324 320 313 305 296 287 279 273 271 268 265 263 262 261 259 257 257 258 261 262 263 262 259 254 248 244 243 244 245 244 244 243 242 241 240 240 239 239 239 239 238 237 237 236 235 235 236 238 240 242 242 244 245 246 247
328 332 337 341 343 343 341 339 336 332 329 327 325 324 324 324 323 320 319 320 323 326 326 327 326 324 326 331 334 333 329 327 321 314 307 299 290 281 275 271 268 265 264 262 260 259 258 258 260 262 262 261 259 255 249 244 241 241 241 242 241 241 241 240 239 238 238 238 237 237 237 237 236 235 234 234 234 236 238 240 241 242 243 245 246
329 332 336 340 341 340 340 340 339 337 336 335 334 332 329 325 321 318 316 315 318 321 322 324 325 325 324 327 332 335 335 333 329 322 315 309 302 293 285 278 273 269 267 265 264 263 262 262 262 263 262 261 258 255 250 245 241 240 239 239 239 239 238 238 237 236 236 236 236 236 236 236 236 235 233 233 233 235 237 239 240 241 242 243 244
331 332 334 337 339 338 338 338 337 336 336 336 336 336 335 333 330 324 319 315 314 316 318 320 322 324 324 325 328 333 338 339 336 330 324 318 312 306 298 288 280 274 270 268 266 266 265 264 262 261 259 256 254 251 248 245 242 240 238 237 237 237 236 236 235 234 234 234 234 235 235 236 235 234 232 232 233 235 237 238 239 239 240 241 242
330 330 330 334 337 336 336 336 335 334 334 334 335 335 335 336 336 335 330 324 319 318 319 320 320 322 324 325 327 332 338 342 341 337 332 326 322 317 311 303 294 284 277 272 268 265 263 260 257 255 253 251 249 247 245 243 241 239 237 236 236 236 235 234 233 233 233 233 233 233 234 234 234 232 231 232 233 235 237 238 238 238 239 240 241
328 328 329 333 335 335 335 334 332 331 331 332 333 334 334 335 337 338 338 334 329 326 326 327 325 325 327 328 328 331 337 342 344 343 339 333 328 325 321 315 308 299 289 280 273 268 264 260 257 255 252 250 249 248 246 244 242 240 238 236 236 236 235 234 233 233 232 232 232 232 233 233 233 231 230 231 234 236 237 239 239 239 239 240 241
326 328 330 332 334 335 334 333 332 331 331 331 331 332 333 335 336 337 338 339 336 333 332 333 333 331 330 330 330 332 335 338 342 346 346 342 335 329 326 322 318 312 305 295 286 278 273 269 265 261 258 256 254 253 250 246 244 242 239 238 237 236 235 234 233 233 232 232 232 232 232 232 231 230 230 232 235 237 238 238 239 240 240 241 242
324 326 329 332 334 334 333 333 332 331 331 331 331 332 333 334 336 337 337 338 339 337 335 335 335 333 332 332 332 333 336 337 339 344 349 350 345 338 331 327 324 322 320 315 306 297 289 282 276 271 267 264 261 257 252 247 244 241 239 237 236 236 236 235 234 234 234 233 233 233 232 231 230 229 230 234 238 239 239 239 238 238 239 240 240
323 325 328 331 333 333 332 332 332 332 332 332 332 333 334 334 336 336 336 337 337 337 336 335 334 333 333 333 331 331 335 338 339 340 344 350 353 351 346 339 333 328 325 325 324 320 312 304 295 287 280 273 266 259 251 246 243 240 238 237 236 236 237 237 236 235 235 234 233 233 233 231 230 230 232 236 240 241 241 240 238 237 237 238 238
320 324 328 331 332 332 332 331 331 332 333 333 334 334 335 335 335 336 336 336 335 335 335 334 333 331 332 332 331 329 330 334 337 338 340 344 349 353 356 358 354 345 336 329 327 328 326 318 309 300 290 279 269 261 254 248 245 243 240 239 238 238 238 238 238 237 236 234 233 233 232 232 231 232 235 238 241 242 242 241 240 238 239 239 240
319 323 327 329 331 331 331 331 332 332 333 334 335 335 336 336 336 336 336 335 334 333 332 331 330 329 329 329 330 329 328 328 331 335 338 339 341 346 354 0 1 358 355 349 340 333 326 313 300 290 282 274 269 266 261 257 253 249 246 244 242 240 239 239 238 237 236 234 232 231 231 232 232 234 236 239 241 241 242 241 241 241 241 241 242
318 322 325 328 330 330 331 331 332 333 334 334 335 336 336 337 336 336 336 335 334 332 330 329 328 327 325 325 327 329 329 327 327 329 334 338 339 340 346 353 357 359 3 5 5 2 353 331 290 262 252 250 250 251 250 250 250 249 247 244 242 240 238 237 235 234 233 232 230 230 230 230 232 234 236 238 240 241 242 242 242 243 243 244 244
317 321 325 327 329 330 331 332 332 333 334 335 336 336 337 337 336 336 336 336 335 333 330 329 328 326 323 321 321 324 328 329 328 328 331 337 342 344 350 0 6 6 7 10 14 13 12 8 359 313 246 235 233 230 225 225 228 231 232 232 232 231 230 230 228 226 224 223 224 226 228 230 232 234 236 237 239 241 242 243 243 244 245 246 246
317 321 324 327 329 330 331 332 332 333 334 335 336 337 337 337 337 336 336 336 335 334 332 331 330 329 326 322 319 318 322 327 331 331 331 335 344 353 3 14 13 6 5 9 14 13 10 11 12 14 13 333 253 232 219 215 215 216 217 218 219 221 222 224 225 224 223 223 225 227 229 231 233 235 237 239 240 242 243 245 246 247 247 248 249
318 321 325 327 329 330 331 331 332 334 335 336 337 338 338 337 337 337 337 337 336 335 335 335 335 334 333 330 326 321 318 320 327 331 331 330 334 344 356 4 3 359 358 1 4 2 0 1 5 13 27 50 95 130 152 177 192 196 199 203 206 211 215 217 219 221 223 225 227 230 232 234 235 236 238 240 241 242 244 245 247 248 249 250 250
319 322 325 327 328 329 331 332 333 335 336 337 338 338 338 338 338 337 337 337 336 336 337 339 340 341 342 341 340 335 328 321 321 326 327 323 319 322 329 337 342 345 346 347 346 346 347 348 346 351 9 55 114 137 147 162 176 186 192 196 200 205 209 211 213 215 217 220 223 227 231 234 236 237 239 241 242 243 244 245 246 248 250 251 252
Height
5632 5632 5632 5631 5630 5629 5628 5628 5627 5627 5626 5626 5625 5625 5624 5623 5623 5623 5622 5622 5622 5622 5622 5622 5622 5622 5622 5622 5621 5622 5622 5622 5622 5623 5624 5625 5625 5625 5625 5626 5627 5628 5628 5628 5629 5629 5631 5631 5631 5631 5630 5631 5633 5633 5634 5634 5635 5636 5637 5637 5638 5640 5640 5641 5645 5647 5648 5650 5652 5653 5654 5655 5656 5657 5658 5659 5660 5661 5663 5665 5667 5669 5669 5670 5672
5619 5619 5619 5619 5619 5618 5617 5616 5615 5614 5614 5614 5614 5614 5613 5613 5613 5612 5612 5611 5611 5611 5610 5610 5610 5610 5610 5610 5610 5610 5610 5609 5609 5610 5611 5612 5613 5614 5614 5615 5615 5616 5617 5618 5618 5618 5620 5621 5622 5621 5620 5622 5623 5623 5623 5624 5624 5625 5627 5627 5629 5631 5630 5631 5634 5636 5638 5641 5642 5643 5644 5645 5647 5648 5648 5649 5650 5651 5654 5656 5658 5660 5660 5661 5663
5608 5607 5606 5606 5605 5605 5605 5604 5603 5602 5601 5601 5601 5601 5601 5602 5602 5601 5601 5601 5600 5600 5599 5599 5598 5597 5597 5597 5597 5597 5598 5598 5598 5598 5598 5599 5600 5601 5602 5603 5604 5605 5606 5606 5607 5607 5609 5611 5611 5610 5610 5612 5613 5613 5613 5613 5613 5615 5617 5618 5619 5621 5621 5620 5623 5625 5628 5630 5633 5634 5635 5636 5638 5639 5638 5639 5640 5642 5645 5647 5649 5650 5651 5652 5653
5596 5595 5594 5593 5593 5592 5591 5591 5591 5590 5589 5588 5588 5587 5588 5588 5589 5589 5589 5589 5589 5589 5588 5588 5587 5586 5585 5585 5584 5584 5584 5585 5585 5586 5586 5587 5587 5588 5589 5590 5592 5593 5594 5595 5595 5596 5598 5599 5600 5599 5599 5601 5603 5602 5602 5603 5603 5605 5607 5608 5609 5611 5610 5610 5612 5615 5616 5619 5623 5625 5626 5626 5627 5629 5629 5630 5631 5633 5635 5638 5640 5641 5642 5643 5645
5584 5583 5582 5581 5580 5579 5578 5578 5577 5577 5576 5575 5575 5574 5574 5574 5575 5575 5575 5575 5576 5576 5576 5575 5575 5574 5573 5573 5572 5572 5571 5571 5572 5572 5573 5574 5574 5575 5576 5577 5579 5580 5582 5583 5584 5585 5586 5588 5588 5588 5589 5591 5592 5591 5591 5592 5593 5594 5596 5597 5598 5599 5599 5599 5602 5603 5605 5609 5612 5614 5615 5617 5618 5619 5621 5622 5622 5623 5626 5628 5631 5632 5633 5634 5636
5570 5570 5569 5568 5567 5566 5566 5565 5565 5564 5563 5562 5561 5561 5560 5560 5560 5561 5561 5562 5562 5562 5563 5562 5562 5562 5561 5560 5560 5559 5558 5558 5558 5559 5559 5560 5561 5562 5563 5565 5566 5567 5569 5570 5571 5573 5575 5576 5577 5577 5578 5579 5580 5579 5579 5580 5582 5584 5586 5586 5587 5587 5588 5589 5591 5592 5594 5598 5601 5603 5605 5607 5609 5610 5612 5613 5613 5614 5616 5619 5621 5623 5624 5625 5626
5556 5555 5554 5554 5553 5552 5551 5551 5551 5550 5550 5549 5548 5547 5546 5545 5545 5545 5545 5546 5547 5548 5549 5549 5549 5549 5549 5548 5548 5547 5546 5546 5545 5545 5546 5546 5548 5549 5550 5552 5553 5555 5556 5557 5559 5560 5562 5564 5565 5566 5567 5567 5568 5567 5567 5569 5570 5573 5575 5575 5575 5575 5577 5579 5580 5580 5583 5586 5589 5592 5595 5597 5599 5601 5603 5603 5604 5606 5608 5610 5612 5613 5614 5614 5615
5542 5540 5539 5538 5538 5537 5536 5536 5536 5536 5535 5534 5533 5533 5532 5531 5530 5530 5529 5530 5530 5531 5532 5534 5535 5535 5535 5536 5536 5535 5534 5534 5533 5532 5532 5533 5534 5535 5536 5538 5540 5542 5543 5545 5546 5548 5549 5551 5553 5554 5555 5555 5556 5555 5556 5557 5559 5562 5564 5563 5563 5564 5566 5568 5569 5570 5572 5574 5577 5581 5584 5586 5588 5591 5593 5594 5596 5600 5602 5601 5601 5601 5602 5602 5603
5528 5526 5524 5523 5522 5521 5521 5520 5520 5520 5519 5519 5518 5517 5517 5516 5516 5516 5515 5514 5514 5514 5515 5517 5518 5519 5520 5521 5522 5522 5522 5521 5520 5519 5519 5520 5520 5521 5522 5523 5525 5527 5529 5531 5533 5534 5536 5537 5539 5541 5542 5543 5543 5543 5544 5546 5547 5550 5552 5551 5551 5553 5556 5557 5558 5559 5561 5563 5565 5569 5572 5575 5579 5581 5583 5586 5589 5591 5591 5589 5589 5590 5591 5591 5593
5515 5513 5511 5509 5507 5506 5505 5504 5504 5504 5503 5503 5502 5501 5502 5502 5502 5502 5501 5500 5499 5498 5498 5499 5501 5502 5503 5505 5506 5507 5508 5508 5507 5506 5506 5506 5506 5508 5509 5510 5511 5512 5514 5517 5518 5520 5521 5523 5525 5527 5528 5530 5530 5530 5531 5533 5535 5538 5538 5538 5539 5542 5544 5546 5548 5550 5550 5551 5554 5557 5559 5564 5569 5572 5574 5577 5578 5579 5579 5579 5580 5580 5580 5581 5584
5502 5500 5498 5495 5493 5491 5490 5488 5488 5487 5487 5486 5485 5485 5485 5485 5486 5486 5486 5485 5485 5484 5483 5483 5483 5484 5485 5487 5489 5490 5492 5492 5492 5491 5491 5491 5492 5493 5494 5496 5498 5499 5501 5502 5504 5505 5506 5508 5510 5512 5515 5517 5517 5517 5519 5520 5522 5524 5525 5526 5528 5530 5532 5534 5537 5539 5539 5540 5543 5544 5547 5554 5559 5561 5563 5565 5566 5567 5569 5570 5569 5568 5569 5572 5575
5489 5487 5485 5483 5481 5478 5476 5474 5473 5472 5470 5469 5469 5469 5468 5468 5469 5468 5468 5469 5468 5469 5469 5469 5468 5468 5467 5468 5470 5472 5474 5476 5475 5475 5475 5475 5475 5476 5478 5480 5483 5485 5487 5488 5490 5491 5491 5492 5495 5497 5499 5502 5503 5504 5506 5508 5509 5510 5511 5513 5515 5518 5521 5523 5525 5527 5527 5529 5532 5532 5536 5543 5547 5548 5551 5554 5555 5556 5558 5558 5558 5558 5559 5561 5564
5476 5474 5472 5470 5468 5465 5463 5460 5459 5457 5455 5453 5452 5451 5451 5451 5451 5451 5450 5451 5450 5451 5453 5453 5452 5452 5451 5451 5452 5454 5456 5458 5458 5457 5458 5459 5458 5458 5460 5463 5466 5468 5471 5474 5475 5477 5477 5478 5479 5482 5484 5486 5487 5489 5492 5494 5495 5496 5497 5500 5503 5507 5509 5511 5513 5515 5515 5517 5519 5522 5528 5532 5532 5535 5539 5541 5543 5545 5546 5547 5548 5548 5548 5550 5553
5464 5461 5459 5457 5455 5452 5449 5446 5445 5443 5442 5439 5436 5435 5435 5434 5434 5433 5432 5432 5432 5433 5434 5435 5435 5435 5434 5433 5434 5436 5439 5441 5440 5438 5439 5441 5441 5440 5441 5444 5448 5450 5453 5457 5459 5461 5463 5464 5464 5467 5470 5470 5472 5474 5476 5478 5479 5481 5483 5486 5490 5494 5496 5498 5501 5503 5504 5505 5506 5512 5518 5518 5518 5522 5525 5526 5530 5534 5536 5537 5538 5537 5537 5540 5542
5450 5448 5446 5444 5442 5439 5436 5433 5431 5430 5428 5425 5423 5422 5420 5418 5417 5416 5413 5412 5413 5414 5414 5415 5416 5417 5417 5416 5415 5417 5422 5424 5422 5421 5420 5421 5420 5420 5421 5425 5429 5432 5435 5438 5441 5444 5447 5448 5450 5453 5455 5456 5457 5459 5460 5461 5462 5465 5470 5473 5476 5480 5482 5485 5489 5491 5492 5493 5495 5501 5505 5504 5505 5508 5511 5514 5518 5522 5523 5524 5525 5526 5526 5528 5531
5437 5434 5432 5431 5428 5425 5422 5420 5418 5416 5414 5412 5410 5408 5406 5404 5402 5400 5397 5395 5395 5394 5394 5395 5395 5396 5398 5399 5397 5398 5403 5406 5404 5403 5403 5402 5401 5400 5400 5402 5406 5410 5415 5420 5422 5424 5428 5430 5433 5436 5439 5441 5443 5444 5443 5443 5445 5449 5455 5459 5462 5465 5469 5474 5477 5477 5478 5479 5483 5489 5492 5492 5493 5495 5497 5501 5506 5509 5509 5510 5513 5515 5516 5518 5521
5424 5422 5420 5418 5415 5412 5409 5406 5404 5403 5400 5398 5395 5393 5391 5389 5388 5385 5382 5380 5380 5379 5377 5376 5376 5376 5378 5379 5379 5379 5383 5388 5388 5385 5384 5384 5383 5381 5381 5382 5384 5387 5393 5399 5403 5405 5407 5410 5413 5417 5422 5426 5428 5429 5428 5426 5428 5433 5438 5442 5446 5450 5456 5462 5463 5462 5463 5466 5470 5476 5479 5480 5481 5483 5485 5489 5493 5496 5496 5498 5503 5506 5505 5506 5510
5412 5410 5408 5406 5403 5400 5397 5393 5391 5388 5386 5384 5381 5379 5377 5375 5373 5370 5366 5364 5364 5365 5363 5360 5360 5360 5359 5360 5360 5359 5362 5368 5371 5369 5367 5366 5364 5362 5362 5362 5364 5367 5372 5377 5381 5384 5386 5390 5393 5396 5402 5408 5411 5411 5411 5409 5411 5417 5422 5425 5428 5434 5443 5448 5447 5445 5448 5452 5456 5461 5464 5466 5468 5471 5473 5476 5479 5482 5484 5489 5494 5494 5493 5496 5500
5402 5399 5397 5394 5391 5388 5385 5381 5378 5375 5372 5370 5367 5364 5362 5361 5358 5354 5351 5348 5348 5349 5348 5345 5345 5346 5345 5344 5343 5342 5343 5348 5352 5352 5351 5350 5348 5345 5342 5341 5343 5348 5354 5357 5360 5363 5365 5370 5374 5376 5381 5388 5392 5393 5393 5393 5394 5399 5405 5408 5411 5420 5431 5431 5426 5428 5433 5437 5441 5446 5448 5452 5455 5457 5459 5462 5465 5468 5473 5478 5480 5480 5483 5487 5488
5392 5389 5386 5382 5379 5376 5372 5369 5366 5363 5359 5356 5353 5350 5348 5345 5342 5339 5336 5334 5332 5331 5331 5329 5327 5329 5330 5329 5327 5327 5326 5328 5333 5334 5333 5333 5333 5330 5326 5323 5324 5328 5334 5337 5339 5342 5346 5350 5355 5359 5362 5367 5371 5372 5373 5375 5376 5380 5386 5390 5396 5408 5415 5410 5407 5413 5418 5421 5426 5430 5433 5438 5440 5442 5445 5449 5451 5455 5461 5464 5466 5469 5473 5474 5473
5381 5378 5375 5371 5367 5364 5360 5356 5353 5349 5346 5342 5339 5337 5334 5329 5326 5323 5320 5318 5316 5314 5314 5312 5309 5310 5312 5312 5311 5312 5312 5311 5313 5315 5315 5314 5315 5314 5309 5307 5308 5310 5313 5316 5319 5323 5328 5332 5337 5341 5344 5346 5349 5351 5353 5355 5357 5360 5366 5373 5382 5392 5394 5390 5393 5399 5401 5404 5410 5414 5418 5423 5425 5428 5433 5436 5439 5443 5448 5451 5454 5457 5460 5461 5461
5371 5367 5363 5360 5356 5351 5348 5343 5339 5335 5332 5328 5324 5324 5321 5315 5310 5307 5303 5300 5298 5297 5296 5295 5292 5291 5294 5295 5295 5296 5297 5295 5294 5296 5297 5296 5297 5296 5293 5291 5293 5293 5292 5295 5299 5304 5310 5315 5319 5323 5325 5327 5329 5331 5332 5335 5338 5341 5348 5357 5366 5372 5373 5372 5377 5382 5385 5390 5395 5398 5403 5408 5411 5415 5419 5423 5426 5430 5434 5438 5441 5444 5447 5448 5450
5360 5356 5352 5348 5343 5339 5335 5331 5326 5322 5318 5314 5310 5308 5306 5301 5297 5293 5288 5284 5282 5281 5280 5278 5275 5274 5276 5279 5279 5279 5279 5278 5276 5276 5278 5278 5278 5278 5276 5275 5275 5274 5271 5274 5280 5286 5291 5296 5301 5306 5309 5310 5311 5313 5314 5318 5321 5325 5332 5340 5347 5350 5352 5353 5358 5364 5370 5374 5378 5382 5389 5393 5397 5401 5405 5409 5413 5416 5419 5423 5427 5430 5433 5436 5438
5349 5345 5340 5336 5331 5327 5323 5318 5314 5309 5305 5300 5296 5293 5290 5287 5284 5280 5275 5271 5269 5267 5266 5264 5261 5259 5260 5262 5263 5263 5261 5260 5260 5259 5259 5259 5258 5258 5258 5256 5256 5254 5252 5254 5260 5267 5272 5278 5284 5289 5292 5292 5294 5296 5298 5301 5305 5310 5316 5322 5326 5328 5330 5334 5341 5347 5352 5357 5362 5368 5375 5378 5382 5386 5390 5393 5396 5399 5403 5408 5412 5415 5419 5423 5425
5338 5334 5329 5325 5320 5315 5312 5307 5302 5298 5293 5288 5284 5281 5278 5274 5271 5268 5264 5261 5258 5256 5255 5252 5249 5248 5248 5248 5248 5249 5246 5244 5244 5244 5242 5240 5239 5240 5239 5238 5238 5237 5235 5236 5241 5248 5254 5260 5266 5271 5274 5276 5278 5279 5281 5286 5291 5295 5300 5304 5306 5308 5312 5318 5325 5330 5335 5341 5348 5353 5358 5362 5366 5370 5374 5377 5380 5384 5389 5394 5398 5401 5406 5410 5412
5328 5323 5318 5314 5309 5304 5301 5297 5293 5288 5283 5279 5274 5271 5268 5264 5261 5258 5254 5251 5247 5244 5243 5241 5238 5236 5236 5236 5235 5235 5234 5231 5230 5229 5227 5224 5223 5223 5222 5222 5221 5221 5220 5221 5225 5231 5236 5242 5247 5251 5256 5259 5261 5263 5265 5270 5275 5279 5283 5287 5289 5293 5298 5303 5309 5314 5320 5327 5332 5336 5341 5345 5348 5352 5357 5362 5366 5370 5376 5380 5384 5388 5392 5396 5398
5318 5313 5308 5303 5299 5294 5291 5287 5284 5280 5276 5272 5267 5264 5260 5256 5253 5249 5245 5240 5237 5234 5231 5229 5226 5224 5224 5224 5223 5223 5222 5219 5216 5214 5212 5211 5210 5210 5209 5208 5207 5206 5205 5207 5211 5214 5218 5223 5228 5232 5237 5241 5244 5247 5250 5255 5260 5265 5269 5272 5275 5279 5284 5289 5293 5298 5304 5311 5316 5320 5324 5327 5331 5336 5342 5347 5351 5356 5361 5366 5370 5374 5378 5381 5384
5308 5304 5299 5294 5290 5286 5282 5279 5276 5273 5269 5265 5261 5257 5253 5249 5245 5241 5235 5231 5228 5225 5222 5219 5216 5213 5212 5211 5211 5210 5210 5207 5203 5200 5199 5198 5198 5198 5197 5196 5195 5193 5193 5194 5196 5198 5201 5205 5210 5215 5219 5223 5227 5231 5236 5241 5246 5252 5256 5259 5262 5265 5270 5273 5277 5282 5289 5296 5301 5305 5309 5312 5317 5322 5327 5332 5336 5341 5346 5351 5356 5360 5364 5367 5370
5301 5295 5291 5286 5282 5279 5275 5272 5269 5266 5263 5259 5255 5251 5246 5241 5238 5234 5228 5223 5219 5215 5213 5209 5206 5203 5202 5200 5198 5198 5198 5195 5191 5187 5186 5186 5186 5186 5185 5184 5184 5183 5183 5182 5182 5182 5185 5189 5194 5200 5204 5207 5211 5216 5221 5227 5233 5238 5242 5246 5248 5252 5256 5259 5262 5268 5275 5280 5285 5290 5295 5299 5303 5308 5313 5317 5322 5326 5331 5336 5341 5345 5349 5353 5357
5294 5289 5284 5280 5276 5272 5269 5266 5263 5260 5257 5254 5250 5246 5240 5234 5229 5225 5220 5215 5210 5205 5202 5199 5196 5193 5192 5190 5187 5186 5185 5183 5180 5176 5175 5174 5173 5173 5173 5173 5172 5172 5172 5170 5168 5168 5172 5176 5181 5186 5190 5193 5197 5201 5207 5213 5218 5223 5228 5231 5234 5237 5242 5246 5250 5254 5259 5264 5269 5275 5281 5286 5291 5295 5300 5304 5309 5313 5317 5321 5326 5330 5335 5339 5343
5288 5283 5278 5274 5270 5267 5263 5261 5258 5255 5251 5248 5244 5241 5237 5230 5223 5216 5211 5207 5202 5197 5193 5190 5187 5183 5181 5180 5178 5175 5173 5171 5169 5166 5164 5163 5162 5162 5162 5162 5161 5161 5161 5158 5156 5158 5162 5166 5169 5174 5177 5180 5184 5189 5194 5199 5203 5207 5211 5215 5218 5222 5227 5232 5236 5240 5243 5248 5254 5260 5266 5273 5278 5283 5287 5291 5296 5299 5303 5307 5312 5317 5321 5325 5329
5282 5277 5273 5268 5265 5261 5259 5256 5253 5250 5246 5242 5238 5235 5231 5226 5219 5211 5205 5201 5197 5192 5188 5184 5180 5176 5173 5170 5167 5165 5162 5160 5157 5155 5153 5152 5151 5151 5151 5150 5150 5150 5149 5147 5147 5152 5155 5156 5158 5162 5165 5168 5173 5178 5182 5184 5187 5191 5194 5198 5202 5207 5212 5217 5222 5225 5228 5233 5239 5246 5253 5259 5265 5271 5275 5278 5282 5286 5290 5294 5298 5303 5307 5311 5315
5277 5272 5268 5264 5260 5257 5254 5251 5248 5244 5241 5237 5234 5229 5225 5219 5214 5209 5204 5199 5194 5189 5185 5180 5176 5172 5168 5163 5159 5155 5152 5149 5146 5144 5143 5142 5141 5140 5140 5140 5140 5139 5138 5138 5140 5145 5147 5146 5148 5151 5154 5157 5162 5166 5168 5170 5173 5176 5179 5183 5188 5194 5198 5203 5206 5210 5214 5220 5226 5233 5240 5247 5252 5257 5262 5265 5269 5274 5277 5281 5285 5289 5293 5297 5302
5273 5269 5264 5259 5256 5252 5249 5246 5243 5239 5236 5232 5229 5225 5220 5214 5210 5206 5202 5198 5193 5188 5182 5177 5172 5168 5164 5159 5154 5149 5145 5140 5137 5135 5133 5132 5131 5130 5130 5130 5130 5130 5129 5130 5132 5136 5137 5138 5140 5142 5144 5147 5150 5152 5155 5157 5160 5162 5166 5171 5175 5180 5184 5188 5193 5198 5203 5208 5214 5221 5228 5234 5239 5243 5248 5252 5257 5261 5265 5270 5274 5277 5281 5286 5290
5270 5266 5261 5256 5251 5248 5244 5241 5238 5235 5231 5228 5224 5220 5215 5210 5206 5201 5198 5194 5191 5186 5181 5175 5170 5165 5160 5155 5150 5145 5140 5135 5130 5127 5124 5123 5122 5121 5121 5121 5122 5121 5121 5122 5123 5126 5128 5130 5132 5134 5135 5136 5139 5141 5144 5146 5148 5150 5154 5158 5162 5167 5171 5176 5181 5186 5191 5196 5202 5209 5215 5220 5224 5229 5234 5239 5245 5250 5255 5259 5263 5267 5271 5274 5278
5267 5263 5258 5253 5248 5245 5241 5237 5234 5230 5227 5223 5219 5215 5211 5206 5202 5198 5194 5190 5186 5183 5178 5173 5168 5162 5156 5152 5147 5141 5136 5130 5125 5121 5118 5116 5114 5113 5113 5113 5113 5113 5113 5114 5115 5117 5120 5122 5124 5125 5126 5127 5129 5132 5134 5135 5137 5139 5142 5146 5150 5155 5160 5165 5170 5175 5179 5184 5190 5196 5202 5207 5211 5216 5222 5228 5234 5239 5244 5248 5253 5257 5260 5264 5267
5263 5260 5255 5250 5246 5243 5239 5235 5231 5227 5223 5219 5215 5211 5206 5202 5198 5194 5190 5186 5182 5178 5174 5170 5166 5160 5154 5149 5143 5138 5132 5127 5122 5117 5113 5110 5108 5107 5107 5106 5107 5107 5107 5108 5108 5110 5112 5114 5115 5117 5118 5119 5121 5122 5124 5125 5126 5128 5131 5135 5140 5144 5149 5154 5159 5164 5168 5173 5178 5184 5190 5196 5201 5206 5212 5218 5223 5228 5233 5238 5242 5246 5250 5254 5257
5259 5256 5252 5247 5243 5240 5236 5232 5228 5224 5220 5216 5212 5207 5203 5198 5194 5190 5186 5181 5177 5174 5170 5166 5162 5158 5152 5147 5141 5135 5130 5124 5119 5114 5110 5106 5104 5102 5101 5101 5101 5101 5101 5102 5103 5104 5105 5106 5108 5109 5110 5112 5113 5114 5115 5116 5117 5119 5122 5126 5130 5134 5139 5144 5149 5153 5158 5162 5168 5174 5181 5186 5192 5197 5203 5208 5213 5218 5223 5228 5232 5236 5240 5244 5248
5256 5252 5248 5244 5240 5236 5232 5229 5225 5221 5217 5213 5208 5204 5200 5195 5190 5186 5181 5177 5173 5169 5166 5162 5158 5153 5149 5144 5139 5134 5128 5122 5117 5112 5108 5104 5101 5099 5097 5096 5096 5096 5096 5096 5097 5098 5098 5099 5100 5101 5103 5104 5105 5105 5106 5108 5109 5112 5114 5117 5121 5125 5130 5135 5140 5144 5149 5154 5159 5166 5172 5177 5183 5188 5193 5198 5204 5209 5214 5218 5223 5227 5231 5235 5238
5253 5249 5245 5241 5237 5233 5229 5226 5222 5218 5214 5210 5206 5201 5197 5192 5188 5183 5178 5173 5169 5165 5161 5158 5154 5150 5145 5141 5137 5132 5127 5121 5115 5110 5106 5102 5099 5096 5095 5094 5092 5092 5091 5091 5091 5092 5092 5092 5093 5094 5095 5097 5097 5097 5099 5101 5102 5104 5107 5110 5114 5118 5123 5128 5132 5136 5141 5146 5152 5158 5163 5169 5174 5179 5185 5191 5196 5201 5206 5210 5214 5218 5221 5224 5228
5249 5246 5242 5238 5235 5231 5227 5223 5220 5216 5212 5208 5204 5199 5194 5190 5185 5180 5175 5170 5166 5162 5157 5154 5150 5146 5143 5139 5135 5130 5125 5120 5115 5110 5105 5101 5098 5095 5093 5092 5091 5090 5089 5088 5088 5087 5087 5088 5088 5089 5090 5091 5091 5092 5094 5096 5097 5099 5102 5105 5109 5113 5118 5122 5126 5130 5135 5140 5145 5150 5156 5161 5167 5172 5178 5184 5189 5194 5198 5202 5205 5209 5212 5215 5218
5246 5243 5239 5235 5231 5228 5225 5221 5217 5214 5210 5206 5201 5197 5192 5187 5182 5177 5173 5168 5164 5159 5155 5151 5147 5144 5140 5136 5132 5128 5124 5119 5114 5109 5105 5101 5098 5095 5093 5091 5089 5088 5087 5086 5085 5085 5085 5085 5085 5085 5086 5086 5087 5089 5091 5092 5094 5096 5098 5101 5105 5109 5113 5117 5121 5126 5130 5135 5139 5144 5149 5155 5161 5167 5172 5178 5183 5187 5191 5194 5198 5201 5204 5206 5209
5242 5239 5235 5232 5228 5225 5221 5218 5214 5210 5207 5203 5198 5194 5189 5184 5179 5175 5170 5165 5161 5156 5152 5148 5145 5141 5138 5134 5131 5127 5123 5118 5114 5110 5105 5101 5098 5095 5092 5090 5088 5087 5086 5084 5083 5083 5083 5082 5082 5083 5083 5083 5084 5085 5087 5089 5090 5092 5095 5098 5101 5105 5109 5113 5118 5122 5126 5131 5135 5139 5145 5150 5156 5162 5167 5172 5176 5180 5184 5187 5190 5193 5195 5198 5200
5239 5236 5232 5228 5225 5221 5218 5215 5211 5207 5203 5199 5195 5191 5186 5181 5177 5172 5167 5163 5159 5154 5150 5146 5142 5139 5136 5132 5129 5125 5122 5118 5114 5110 5106 5102 5099 5095 5092 5090 5088 5086 5085 5084 5083 5082 5081 5081 5081 5081 5081 5081 5082 5083 5085 5086 5088 5090 5092 5095 5099 5103 5106 5110 5114 5118 5122 5127 5131 5135 5140 5146 5151 5156 5161 5166 5170 5174 5177 5180 5182 5185 5187 5190 5192
5236 5233 5229 5225 5222 5219 5216 5212 5209 5205 5201 5196 5192 5187 5183 5178 5174 5169 5165 5160 5156 5152 5148 5144 5140 5137 5134 5131 5127 5124 5121 5117 5114 5110 5107 5103 5100 5096 5093 5090 5088 5086 5085 5084 5083 5082 5081 5081 5081 5080 5081 5081 5082 5082 5084 5085 5087 5089 5092 5094 5097 5101 5104 5107 5111 5115 5119 5123 5127 5132 5137 5141 5146 5151 5155 5159 5163 5167 5170 5172 5175 5177 5179 5182 5184
5233 5230 5226 5223 5220 5216 5213 5210 5206 5202 5198 5193 5189 5184 5180 5175 5171 5166 5162 5158 5154 5149 5146 5142 5138 5135 5132 5129 5126 5123 5120 5117 5114 5111 5107 5104 5101 5097 5094 5092 5089 5087 5086 5084 5083 5082 5081 5081 5080 5080 5080 5081 5082 5083 5084 5085 5087 5089 5091 5093 5096 5099 5102 5105 5108 5112 5116 5120 5124 5128 5133 5137 5141 5145 5149 5153 5157 5160 5162 5165 5168 5170 5172 5175 5178
5229 5226 5223 5220 5217 5213 5210 5206 5202 5198 5194 5190 5186 5182 5177 5172 5168 5163 5159 5155 5151 5147 5143 5140 5136 5133 5130 5127 5125 5122 5119 5116 5114 5111 5107 5104 5101 5098 5095 5093 5091 5088 5087 5085 5083 5082 5081 5081 5080 5080 5080 5081 5082 5083 5084 5085 5087 5088 5090 5092 5094 5097 5100 5102 5106 5109 5113 5117 5121 5125 5128 5132 5136 5139 5143 5147 5150 5154 5156 5159 5162 5164 5166 5169 5171
5226 5223 5220 5217 5214 5210 5207 5203 5199 5195 5191 5187 5183 5178 5174 5169 5165 5160 5156 5152 5148 5144 5141 5137 5134 5131 5127 5125 5123 5120 5118 5115 5113 5110 5108 5105 5102 5099 5097 5094 5092 5090 5088 5086 5085 5084 5083 5082 5081 5081 5081 5081 5082 5082 5083 5084 5085 5087 5089 5090 5093 5095 5097 5100 5103 5106 5110 5113 5117 5120 5124 5128 5131 5135 5138 5142 5145 5148 5151 5153 5155 5158 5160 5162 5164
5222 5220 5217 5214 5210 5207 5204 5200 5196 5193 5189 5184 5180 5175 5171 5166 5162 5158 5154 5150 5146 5142 5139 5135 5132 5129 5125 5122 5120 5118 5116 5114 5112 5110 5107 5105 5103 5101 5099 5096 5094 5092 5091 5089 5087 5086 5084 5083 5083 5082 5081 5081 5082 5082 5083 5084 5085 5086 5088 5089 5091 5093 5096 5098 5101 5104 5107 5110 5114 5117 5120 5124 5127 5130 5134 5137 5139 5142 5145 5147 5149 5151 5153 5156 5158
5219 5216 5213 5210 5207 5204 5200 5197 5193 5190 5185 5181 5177 5172 5168 5164 5160 5156 5152 5148 5145 5141 5138 5134 5131 5127 5124 5121 5118 5116 5114 5113 5111 5109 5107 5106 5104 5102 5100 5098 5096 5094 5092 5091 5089 5088 5086 5085 5085 5084 5083 5083 5083 5083 5083 5084 5085 5086 5087 5089 5091 5093 5095 5097 5100 5102 5105 5108 5111 5114 5117 5120 5123 5126 5129 5131 5134 5137 5139 5141 5143 5145 5147 5149 5151
5216 5213 5210 5207 5204 5200 5197 5193 5190 5186 5182 5178 5174 5170 5166 5162 5158 5154 5151 5147 5144 5141 5137 5134 5130 5127 5123 5120 5117 5114 5112 5111 5109 5108 5107 5105 5104 5103 5101 5099 5098 5096 5094 5092 5091 5090 5088 5087 5086 5086 5085 5085 5084 5084 5084 5085 5086 5087 5088 5089 5091 5093 5094 5096 5099 5101 5103 5106 5108 5111 5114 5116 5119 5121 5124 5127 5129 5131 5133 5135 5137 5139 5141 5143 5145